FTCO2: Ft Cobb Lake, OK

Data processed at Wed May 22 2019 23:50


All information presented herein is the property of the government of the United States of America and may be revised or deleted at any time without prior notice.
Dissemination of this information without the expressed written consent of the Public Affairs Office, Tulsa District U.S. Army Corps of Engineers is strictly prohibited.
These data are gathered electronically and, as presented, have not undergone any form of quality control. These data are not guaranteed to be valid or correct.
Go to home page.
Go to station list.
Go to home page.

Upstream stations:

Downstream station:
Previous Day
Next Day
Current Day
    
SHEF ID:       FTCO2     Ft. Cobb Lake
STATION TYPE:  RESERVOIR
Flood Pool:  Bottom =  1342.00, Top =  1354.80

               PRECIP PRECIP(A) ELEVATION   STORAGE    INFLOW   RELEASE   VOLTAGE  BAT-LOAD
                   in        in        ft     ac-ft       cfs       cfs      volt      volt
              Ccp-Rev   Ccp-Rev   Ccp-Rev   Ccp-Rev  Rev-Regi  Rev-Regi   Ccp-Rev   Ccp-Rev
(US/Central)
05/22 00:00      0.00      ----   1346.40     92241      1098         0     13.76      ----
05/22 01:00      0.00      ----   1346.42     92332       989         0     13.76      ----
05/22 02:00      0.00      ----   1346.44     92423       990         0     13.76      ----
05/22 03:00      0.00      ----   1346.45     92468       881         0     13.76      ----
05/22 04:00      0.00      ----   1346.47     92559       771         0     13.76      ----
05/22 05:00      0.00      ----   1346.48     92605       661         0     13.76      ----
05/22 06:00      0.00      ----   1346.49     92650       661         0     13.76      ----
05/22 07:00      0.00      ----   1346.50     92696       441         0     13.76      ----
05/22 08:00      0.00      ----   1346.51     92742       331         0     13.76      ----
05/22 09:00      0.00      ----   1346.52     92787       441         0     13.91      ----
05/22 10:00      0.00      ----   1346.51     92742       331         0     13.86      ----
05/22 11:00      0.00      ----   1346.53     92833       331         0     13.77      ----
05/22 12:00      0.00      ----   1346.53     92833       552         0     13.76      ----
05/22 13:00      0.00      ----   1346.54     92878       662         0     13.77      ----
05/22 14:00      0.00      ----   1346.56     92970       441         0     13.78      ----
05/22 15:00      0.00      ----   1346.57     93015       441         0     13.78      ----
05/22 16:00      0.00      ----   1346.57     93015       552         0     13.78      ----
05/22 17:00      0.00      ----   1346.57     93015       441         0     13.78      ----
05/22 18:00      0.00      ----   1346.59     93106       331         0     13.78      ----
05/22 19:00      0.00      ----   1346.60     93152       553         0     13.78      ----
05/22 20:00      0.00      ----   1346.60     93152       553         0     13.79      ----
05/22 21:00      0.03      ----   1346.62     93244       332         0     13.78      ----
05/22 22:00      0.00      ----   1346.61     93198       222         0     13.78      ----
05/22 23:00      0.00      ----   1346.62     93244       222         0     13.78      ----